Погода в Моргаушах

Россия / Чувашская Республика     55°57′55″N   46°46′17″E
темп.,
°C
ветер,
м/с
пор.,
м/с
влажн.,
%
обл.,
%
осадки,
мм/ч
давл.,
гПа
погр.,
м
12 апреля, пн
пн1200:00+1ссв1298100 0.0 103529
03:00+1св2494100 0.0 103654
06:00+1всв3794100 0.0 1037129
09:00+4всв499499 0.0 1038256
12:00+8в5979100 0.0 1037485
15:00+9в5978100 0.0 1037553
18:00+6в41090100 0.0 1037247
21:00+4в4129697 0.0 1037240
13 апреля, вт
вт1300:00+4вюв4119095 0.0 1036193
03:00+3юв499497 0.0 1035135
06:00+4юв4996100 0.0 1035137
09:00+10ююв478595 0.0 1034220
12:00+15ю476879 0.0 1033592
15:00+18ю475391 0.0 10311221
18:00+14ю336947 0.0 103039
21:00+10ю477779 0.0 103188
14 апреля, ср
ср1400:00+8ю467621 0.0 103077
03:00+7ю347239 0.0 103042
06:00+7ю347178 0.0 103057
09:00+13ю455349 0.0 1029286
12:00+17ю453930 0.0 1027862
15:00+18ю45315 0.0 10261163
18:00+14ююв35515 0.0 102582
21:00+10ююв47705 0.0 102597
15 апреля, чт
чт1500:00+9ю34785 0.0 102450
03:00+7ю33836 0.0 102327
06:00+8ю33815 0.0 102249
09:00+13ююз33585 0.0 1021345
12:00+17ююз33439 0.0 10201177
15:00+18юз33385 0.0 10191487
18:00+15з22513 0.0 101826
21:00+12з11580 0.0 101710
16 апреля, пт
пт1600:00+10юз11610 0.0 101710
03:00+9з11673 0.0 101610
06:00+9зсз11714 0.0 101610
09:00+14сз235642 0.0 1015360
12:00+16сз554775 0.0 10151189
15:00+11с9107044 0.1 1017760
18:00+5ссв71383100 0.1 1020766
21:00+5с613560 0.1 1021648